�N����,����,�~����,�C��,���x,�C��,����,���ϕ���,�ő�u�ԕ���,�ő厞����,���˗�,�I�_���x,�n�����x,�ő啗���N��,DTYPE
"22/06/04","00:10",0.0,17.0,79.4,1006.9,327.1,1.2,2.1,312.2,0.00,13.5,19.8,"00:08:00",1
"22/06/04","00:20",0.0,16.6,79.9,1006.7,300.4,1.1,1.8,327.7,0.00,13.2,20.0,"00:10:08",1
"22/06/04","00:30",0.0,16.6,80.5,1007.1,291.1,1.2,1.8,328.2,0.00,13.3,19.8,"00:27:44",1
"22/06/04","00:40",0.0,16.6,81.1,1006.9,312.5,1.5,1.9,318.8,0.00,13.4,19.9,"00:33:04",1
"22/06/04","00:50",0.0,16.5,81.7,1006.7,323.8,1.6,3.7,343.4,0.00,13.4,19.7,"00:48:00",1
"22/06/04","01:00",0.0,16.4,82.2,1006.9,319.7,1.8,2.8,325.0,0.00,13.4,19.5,"00:59:36",1
"22/06/04","01:10",0.0,16.3,82.5,1007.1,323.2,1.3,2.4,329.0,0.00,13.4,19.7,"01:04:08",1
"22/06/04","01:20",0.0,16.1,82.8,1006.9,320.8,1.6,2.7,311.6,0.00,13.2,19.4,"01:17:28",1
"22/06/04","01:30",0.0,16.7,82.0,1007.1,325.2,2.6,4.3,293.1,0.00,13.7,19.4,"01:26:56",1
"22/06/04","01:40",0.0,16.9,80.5,1007.1,316.8,1.7,3.1,309.2,0.00,13.6,19.5,"01:30:32",1
"22/06/04","01:50",0.0,16.5,79.9,1006.9,302.3,1.0,1.9,316.8,0.00,13.1,19.3,"01:46:48",1
"22/06/04","02:00",0.0,16.3,80.5,1007.1,318.2,1.2,3.3,332.5,0.00,13.0,19.2,"01:59:52",1
"22/06/04","02:10",0.0,16.3,80.9,1006.7,332.5,2.0,4.1,336.5,0.00,13.1,19.2,"02:01:20",1
"22/06/04","02:20",0.0,16.3,81.3,1007.4,334.5,1.6,2.5,342.5,0.00,13.1,19.4,"02:11:52",1
"22/06/04","02:30",0.0,16.1,81.8,1007.1,325.3,1.8,3.1,311.9,0.00,13.0,19.2,"02:28:08",1
"22/06/04","02:40",0.0,16.3,81.9,1006.9,313.4,2.1,3.9,312.2,0.00,13.2,19.4,"02:32:40",1
"22/06/04","02:50",0.0,16.2,81.8,1007.4,314.6,1.6,2.2,319.4,0.00,13.1,19.2,"02:41:36",1
"22/06/04","03:00",0.0,16.0,81.7,1007.6,297.7,1.1,2.0,323.9,0.00,12.9,19.2,"02:50:56",1
"22/06/04","03:10",0.0,15.8,82.0,1007.4,267.8,1.1,1.6,263.7,0.00,12.8,19.2,"03:08:56",1
"22/06/04","03:20",0.0,15.5,82.2,1007.4,282.8,1.2,1.9,320.8,0.00,12.5,19.1,"03:13:28",1
"22/06/04","03:30",0.0,15.5,82.8,1007.1,317.3,1.6,2.1,319.8,0.00,12.6,19.1,"03:23:12",1
"22/06/04","03:40",0.0,15.3,83.5,1007.6,320.5,1.6,2.0,319.9,0.00,12.6,18.9,"03:34:32",1
"22/06/04","03:50",0.0,14.9,84.1,1007.8,310.7,1.3,2.5,321.4,0.00,12.3,18.7,"03:42:40",1
"22/06/04","04:00",0.0,14.7,85.0,1007.8,306.3,1.5,2.4,319.7,0.00,12.2,19.0,"03:58:00",1
"22/06/04","04:10",0.0,14.4,85.7,1007.8,300.3,1.3,2.0,320.1,0.00,12.1,18.8,"04:07:36",1
"22/06/04","04:20",0.0,14.4,86.4,1007.8,315.4,1.3,2.0,312.6,0.00,12.2,18.9,"04:14:40",1
"22/06/04","04:30",0.0,14.4,86.9,1007.8,318.5,1.2,1.7,340.5,0.00,12.3,18.9,"04:27:52",1
"22/06/04","04:40",0.0,14.3,87.3,1007.6,311.1,1.3,2.1,323.2,0.00,12.3,18.7,"04:32:00",1
"22/06/04","04:50",0.0,14.4,87.8,1007.6,320.8,1.5,1.8,319.3,0.00,12.4,18.7,"04:43:28",1
"22/06/04","05:00",0.0,14.4,88.4,1007.6,324.6,1.8,2.7,331.4,0.00,12.5,18.7,"04:59:20",1
"22/06/04","05:10",0.0,15.3,88.3,1007.6,319.3,2.7,4.5,314.5,0.00,13.4,18.7,"05:05:52",1
"22/06/04","05:20",0.0,15.6,87.8,1007.8,319.8,2.6,3.6,324.3,0.00,13.6,18.7,"05:19:12",1
"22/06/04","05:30",0.0,15.8,87.1,1008.3,329.0,2.6,3.9,331.5,0.00,13.7,18.5,"05:23:04",1
"22/06/04","05:40",0.0,15.8,86.6,1008.1,320.9,2.1,3.1,336.1,0.00,13.6,18.7,"05:30:56",1
"22/06/04","05:50",0.0,15.7,86.2,1007.8,323.8,1.8,2.8,327.9,0.00,13.4,18.7,"05:45:12",1
"22/06/04","06:00",0.0,15.7,86.3,1008.1,328.9,1.7,2.6,334.6,0.01,13.5,18.6,"05:56:00",1
"22/06/04","06:10",0.0,15.9,86.2,1008.1,324.3,2.0,3.2,306.5,0.02,13.6,18.4,"06:09:20",1
"22/06/04","06:20",0.0,16.3,85.7,1008.1,324.7,2.3,3.6,340.0,0.02,13.9,18.7,"06:16:00",1
"22/06/04","06:30",0.0,16.6,84.7,1008.3,326.1,2.6,4.2,335.0,0.03,14.1,18.6,"06:27:36",1
"22/06/04","06:40",0.0,16.9,83.5,1008.1,326.2,2.3,4.1,341.9,0.03,14.1,18.6,"06:33:44",1
"22/06/04","06:50",0.0,17.1,82.3,1008.1,325.6,2.5,4.2,340.4,0.04,14.1,18.3,"06:42:48",1
"22/06/04","07:00",0.0,17.3,81.4,1008.6,322.3,2.5,4.7,318.0,0.06,14.1,18.5,"06:52:08",1
"22/06/04","07:10",0.0,17.5,80.5,1008.8,315.5,2.0,3.5,330.4,0.07,14.2,18.2,"07:07:28",1
"22/06/04","07:20",0.0,17.9,79.4,1008.8,305.0,1.5,2.6,327.0,0.06,14.3,18.4,"07:12:00",1
"22/06/04","07:30",0.0,18.3,78.1,1008.8,316.8,1.6,2.7,322.8,0.07,14.5,18.3,"07:20:16",1
"22/06/04","07:40",0.0,18.8,76.8,1008.8,285.8,1.3,2.2,254.0,0.12,14.7,18.3,"07:38:00",1
"22/06/04","07:50",0.0,19.3,75.3,1009.0,314.6,1.1,2.9,345.3,0.11,14.9,18.4,"07:48:08",1
"22/06/04","08:00",0.0,20.0,73.0,1008.6,321.2,1.2,2.9,352.5,0.18,15.1,18.5,"07:54:00",1
"22/06/04","08:10",0.0,21.0,67.8,1008.1,350.1,1.5,3.6,10.5,0.27,14.9,18.5,"08:08:32",1
"22/06/04","08:20",0.0,21.4,63.9,1008.1,338.6,1.8,4.1,330.4,0.29,14.3,18.6,"08:19:44",1
"22/06/04","08:30",0.0,21.0,64.9,1008.3,351.6,2.5,4.0,319.2,0.19,14.2,18.4,"08:20:16",1
"22/06/04","08:40",0.0,21.3,65.0,1008.1,350.5,2.3,4.0,351.7,0.28,14.5,18.4,"08:37:44",1
"22/06/04","08:50",0.0,21.7,63.0,1008.1,350.6,3.2,6.8,350.6,0.33,14.4,18.5,"08:42:16",1
"22/06/04","09:00",0.0,22.0,61.4,1007.8,344.9,2.8,5.5,349.6,0.35,14.3,18.5,"08:51:04",1
"22/06/04","09:10",0.0,22.3,60.1,1008.1,353.4,2.5,4.3,357.2,0.32,14.2,18.5,"09:00:16",1
"22/06/04","09:20",0.0,22.5,58.6,1007.6,349.8,2.6,4.3,353.1,0.37,14.0,18.5,"09:19:36",1
"22/06/04","09:30",0.0,22.6,57.9,1007.6,356.9,2.6,5.7,349.0,0.41,13.9,18.6,"09:29:04",1
"22/06/04","09:40",0.0,23.4,56.2,1007.4,0.8,2.1,3.5,351.5,0.46,14.2,18.7,"09:30:32",1
"22/06/04","09:50",0.0,23.6,56.0,1007.1,349.6,2.2,4.4,348.7,0.47,14.4,18.6,"09:47:52",1
"22/06/04","10:00",0.0,23.5,53.9,1007.1,2.9,2.5,4.3,348.5,0.50,13.7,18.5,"09:53:36",1
"22/06/04","10:10",0.0,24.4,51.5,1007.1,31.1,1.3,4.1,97.5,0.52,13.8,18.7,"10:05:20",1
"22/06/04","10:20",0.0,24.4,50.7,1006.9,31.8,1.6,4.8,81.2,0.53,13.6,18.8,"10:12:40",1
"22/06/04","10:30",0.0,24.3,52.9,1006.9,356.7,2.3,4.8,356.4,0.54,14.1,18.7,"10:21:28",1
"22/06/04","10:40",0.0,24.8,51.4,1006.4,349.7,1.7,4.2,338.0,0.55,14.1,18.7,"10:37:12",1
"22/06/04","10:50",0.0,25.1,49.3,1006.4,346.7,1.5,3.7,29.1,0.56,13.8,18.7,"10:47:12",1
"22/06/04","11:00",0.0,25.5,47.7,1006.4,54.4,1.3,4.3,1.5,0.57,13.6,18.9,"10:59:20",1
"22/06/04","11:10",0.0,25.5,48.6,1006.0,11.0,1.6,3.5,352.0,0.58,13.9,19.1,"11:02:00",1
"22/06/04","11:20",0.0,25.9,48.2,1005.2,351.6,1.1,2.9,353.0,0.59,14.2,18.9,"11:12:40",1
"22/06/04","11:30",0.0,25.6,47.3,1005.5,263.8,1.5,3.5,240.6,0.59,13.6,18.9,"11:28:56",1
"22/06/04","11:40",0.0,25.8,48.8,1005.0,259.6,1.5,3.2,337.5,0.60,14.3,19.0,"11:34:48",1
"22/06/04","11:50",0.0,25.9,47.1,1005.5,242.5,1.7,3.3,257.7,0.61,13.8,19.2,"11:48:40",1
"22/06/04","12:00",0.0,26.2,46.6,1005.0,215.0,1.8,3.4,236.0,0.62,13.9,19.3,"11:50:08",1
"22/06/04","12:10",0.0,26.8,48.0,1005.2,246.4,1.2,3.4,239.4,0.64,14.9,19.3,"12:06:20",1
"22/06/04","12:20",0.0,26.7,45.3,1005.2,182.1,2.5,4.4,235.3,0.61,13.9,19.3,"12:19:36",1
"22/06/04","12:30",0.0,26.9,45.7,1005.0,192.0,2.6,4.9,189.1,0.65,14.3,19.3,"12:22:32",1
"22/06/04","12:40",0.0,27.2,46.0,1004.8,195.4,1.8,4.0,213.0,0.62,14.6,19.4,"12:33:04",1
"22/06/04","12:50",0.0,27.3,45.8,1004.5,203.0,2.0,4.5,232.4,0.62,14.6,19.5,"12:45:04",1
"22/06/04","13:00",0.0,26.8,46.7,1005.0,198.0,2.7,6.0,229.1,0.62,14.5,19.5,"12:54:56",1
"22/06/04","13:10",0.0,27.7,45.8,1004.5,182.5,1.6,4.3,184.5,0.61,15.0,19.5,"13:09:44",1
"22/06/04","13:20",0.0,28.6,46.9,1004.5,159.5,1.2,4.0,157.6,0.60,16.2,19.6,"13:10:16",1
"22/06/04","13:30",0.0,26.8,45.8,1004.8,291.8,1.6,2.9,228.4,0.28,14.2,19.7,"13:24:56",1
"22/06/04","13:40",0.0,27.2,45.3,1004.1,277.3,1.5,3.1,278.8,0.58,14.4,19.7,"13:35:44",1
"22/06/04","13:50",0.0,27.6,45.1,1003.8,314.1,2.3,4.9,339.1,0.60,14.7,19.8,"13:49:52",1
"22/06/04","14:00",0.0,27.2,44.4,1003.8,326.3,2.6,4.4,341.5,0.58,14.1,19.9,"13:51:12",1
"22/06/04","14:10",0.0,27.3,44.6,1003.8,318.7,2.5,5.2,251.5,0.56,14.2,19.9,"14:06:32",1
"22/06/04","14:20",0.0,27.7,44.4,1003.8,323.9,2.2,5.0,346.7,0.55,14.5,20.1,"14:14:00",1
"22/06/04","14:30",0.0,28.0,43.1,1004.1,257.6,2.0,5.7,237.1,0.55,14.3,20.1,"14:29:36",1
"22/06/04","14:40",0.0,27.9,44.0,1004.1,289.0,2.2,4.2,348.4,0.53,14.6,20.1,"14:36:16",1
"22/06/04","14:50",0.0,28.3,42.6,1003.8,284.3,1.6,4.5,315.4,0.51,14.4,20.2,"14:42:24",1
"22/06/04","15:00",0.0,28.0,42.3,1003.4,306.7,2.3,4.2,244.4,0.50,14.1,20.2,"14:57:52",1
"22/06/04","15:10",0.0,28.2,42.3,1003.4,314.7,1.7,3.9,354.0,0.48,14.2,20.2,"15:00:02",1
"22/06/04","15:20",0.0,28.6,40.8,1003.8,310.0,1.5,3.6,350.1,0.46,14.0,20.3,"15:10:08",1
"22/06/04","15:30",0.0,28.3,42.5,1003.1,315.4,2.1,4.0,307.6,0.44,14.4,20.3,"15:28:32",1
"22/06/04","15:40",0.0,28.3,41.3,1003.1,316.3,2.1,5.6,348.1,0.42,14.0,20.3,"15:30:40",1
"22/06/04","15:50",0.0,28.5,40.7,1003.1,291.0,1.5,3.2,249.9,0.40,13.9,20.3,"15:45:36",1
"22/06/04","16:00",0.0,28.8,40.5,1003.6,311.1,1.5,4.0,334.0,0.38,14.1,20.5,"15:52:40",1
"22/06/04","16:10",0.0,28.3,40.8,1003.6,327.9,2.6,5.8,322.0,0.36,13.8,20.7,"16:07:44",1
"22/06/04","16:20",0.0,28.4,40.9,1003.1,316.2,2.2,4.5,341.2,0.34,13.9,20.7,"16:11:04",1
"22/06/04","16:30",0.0,28.4,42.2,1003.4,275.0,1.7,3.3,311.4,0.30,14.4,20.7,"16:21:44",1
"22/06/04","16:40",0.0,28.2,41.0,1003.6,273.5,2.3,5.5,344.0,0.29,13.7,20.6,"16:39:12",1
"22/06/04","16:50",0.0,28.5,40.8,1003.4,281.7,1.8,4.5,273.8,0.27,13.9,20.6,"16:47:20",1
"22/06/04","17:00",0.0,28.3,40.5,1003.4,280.5,1.6,4.5,317.4,0.24,13.7,20.9,"16:56:00",1
"22/06/04","17:10",0.0,27.9,42.1,1003.4,275.4,2.5,4.8,318.4,0.22,13.9,20.9,"17:06:24",1
"22/06/04","17:20",0.0,28.0,43.5,1003.4,332.1,2.5,5.2,343.9,0.17,14.5,20.7,"17:11:20",1
"22/06/04","17:30",0.0,27.5,43.1,1003.1,342.6,2.5,4.4,329.5,0.06,13.9,20.8,"17:22:24",1
"22/06/04","17:40",0.0,27.3,43.9,1003.4,344.6,2.3,5.0,344.2,0.05,14.0,20.8,"17:39:52",1
"22/06/04","17:50",0.0,26.4,45.9,1003.1,340.4,3.0,6.0,336.5,0.04,13.9,20.7,"17:48:16",1
"22/06/04","18:00",0.0,25.9,46.8,1003.6,346.2,2.5,5.0,345.4,0.02,13.7,20.9,"17:59:12",1
"22/06/04","18:10",0.0,25.6,47.7,1003.4,347.7,2.6,5.0,331.9,0.02,13.7,20.9,"18:01:04",1
"22/06/04","18:20",0.0,25.2,47.3,1003.6,352.2,2.7,5.4,344.6,0.01,13.2,20.9,"18:19:12",1
"22/06/04","18:30",0.0,24.7,49.0,1004.1,353.0,2.7,4.8,4.6,0.01,13.3,20.9,"18:20:32",1
"22/06/04","18:40",0.0,23.8,49.8,1004.3,350.4,3.2,6.5,350.6,0.01,12.7,21.1,"18:36:48",1
"22/06/04","18:50",0.0,23.2,52.0,1004.5,351.2,3.2,5.8,348.6,0.01,12.8,21.0,"18:48:56",1
"22/06/04","19:00",0.0,23.0,52.9,1004.8,351.4,3.0,7.2,2.3,0.01,12.9,20.9,"18:53:28",1
"22/06/04","19:10",0.0,22.5,54.6,1004.8,347.8,3.0,5.8,353.4,0.01,12.9,20.7,"19:03:36",1
"22/06/04","19:20",0.0,22.0,56.3,1004.8,345.1,3.1,5.8,351.7,0.00,12.9,20.9,"19:12:00",1
"22/06/04","19:30",0.0,21.6,57.0,1005.0,349.2,3.2,5.6,349.5,0.00,12.8,20.9,"19:21:04",1
"22/06/04","19:40",0.0,21.3,58.2,1005.2,350.3,3.0,5.5,356.7,0.00,12.8,20.8,"19:33:12",1
"22/06/04","19:50",0.0,20.9,60.3,1005.0,338.0,2.2,4.7,355.3,0.00,13.0,20.6,"19:49:44",1
"22/06/04","20:00",0.0,20.5,61.7,1005.7,333.5,1.8,3.5,341.3,0.00,12.9,20.9,"19:51:44",1
"22/06/04","20:10",0.0,20.2,62.6,1006.0,342.8,1.6,3.5,346.2,0.00,12.9,20.8,"20:02:32",1
"22/06/04","20:20",0.0,19.9,63.7,1006.2,333.3,1.5,2.8,344.2,0.00,12.9,20.9,"20:15:20",1
"22/06/04","20:30",0.0,19.6,65.1,1006.0,322.6,1.7,3.1,308.7,0.00,12.9,20.6,"20:24:32",1
"22/06/04","20:40",0.0,19.3,65.7,1006.2,323.9,1.5,2.8,338.7,0.00,12.8,20.5,"20:34:08",1
"22/06/04","20:50",0.0,19.1,66.4,1006.7,276.7,1.1,2.0,323.1,0.00,12.7,20.7,"20:49:04",1
"22/06/04","21:00",0.0,19.0,67.1,1006.7,331.0,1.3,2.7,332.5,0.00,12.8,20.7,"20:50:32",1
"22/06/04","21:10",0.0,18.8,67.9,1006.9,303.7,1.5,2.4,311.6,0.00,12.8,20.6,"21:02:40",1
"22/06/04","21:20",0.0,18.7,68.7,1006.7,314.7,2.0,4.4,331.0,0.00,12.9,20.3,"21:17:52",1
"22/06/04","21:30",0.0,18.8,69.1,1006.9,330.1,2.5,3.4,328.3,0.00,13.1,20.4,"21:21:12",1
"22/06/04","21:40",0.0,18.6,69.5,1007.1,323.1,2.2,4.2,339.8,0.00,13.0,20.7,"21:33:36",1
"22/06/04","21:50",0.0,18.5,70.2,1006.9,327.0,2.2,3.6,344.0,0.00,13.0,20.3,"21:46:00",1
"22/06/04","22:00",0.0,18.3,70.9,1006.9,331.4,2.3,4.3,346.3,0.00,13.0,20.4,"21:54:32",1
"22/06/04","22:10",0.0,18.2,71.5,1006.9,328.0,2.5,3.9,328.3,0.00,13.0,20.1,"22:08:56",1
"22/06/04","22:20",0.0,18.1,72.3,1006.9,328.2,2.6,4.3,340.5,0.00,13.1,20.1,"22:14:16",1
"22/06/04","22:30",0.0,18.0,73.2,1006.9,326.9,2.7,4.2,327.4,0.00,13.2,20.2,"22:29:28",1
"22/06/04","22:40",0.0,17.8,74.3,1006.7,331.7,2.6,3.9,339.2,0.00,13.2,20.0,"22:39:04",1
"22/06/04","22:50",0.0,17.7,75.2,1006.7,334.0,2.3,3.3,348.5,0.00,13.3,20.0,"22:41:36",1
"22/06/04","23:00",0.0,17.6,76.0,1006.9,334.0,2.8,5.5,346.0,0.00,13.4,20.2,"22:56:16",1
"22/06/04","23:10",0.0,17.5,76.4,1006.4,334.3,2.2,3.7,347.0,0.00,13.3,20.1,"23:03:20",1
"22/06/04","23:20",0.0,17.3,77.0,1006.4,332.2,2.5,3.4,318.3,0.00,13.3,20.0,"23:13:44",1
"22/06/04","23:30",0.0,17.3,77.3,1006.0,329.2,2.6,4.1,335.6,0.00,13.3,20.0,"23:29:04",1
"22/06/04","23:40",0.0,17.3,77.3,1006.2,323.1,3.1,4.2,304.0,0.00,13.3,20.2,"23:37:44",1
"22/06/04","23:50",0.0,17.3,77.6,1006.2,334.4,3.1,5.1,337.4,0.00,13.4,19.7,"23:47:20",1
"22/06/04","24:00",0.0,17.2,78.1,1006.2,331.1,2.7,4.3,307.1,0.00,13.4,19.9,"23:51:44",1
